www.pogodaiklimat.ru

Погода и климат >> Архив погоды >> Япония >> Кофу


ПОГОДА в Кофу

  • Прогноз погоды в Кофу
  • Монитор погоды в Кофу

АРХИВ ПОГОДЫ в Кофу

Время (UTC), дата Ветер
(напр.,м/с)
 
Видим.   Явления Облачность Т
(С)
Тd
(С)
f
(%)
Тe
(С)
Тes
(С)
Комфортность P
(гПа)
Po
(гПа)
Тmin
(С)
Tmax
(С)
R
(мм)
R24
(мм)
S
(см)
01 16.09 ЮВ 2 20 км в посл. час дождь н/о +27.2 +20.3 66 +34 +34 очень
душно
1002.0 970.8
02 16.09 ЮВ 2 20 км н/о +29.1 +20.6 60 +36 +36 очень
душно
1000.4 969.5
03 16.09 ЮЗ 2 20 км {дождь} н/о +31.2 +21.1 55 +39 +39 очень
душно
999.0 968.4
04 16.09 СЗ 2 20 км н/о +32.2 +19.8 48 +38 +38 очень
душно
997.6 967.1
05 16.09 ЮЗ 2 20 км н/о +33.8 +20.9 47 +41 +41 опасность
перегрева
997.0 966.7
06 16.09 ЮЗ 3 20 км {дождь} н/о +33.2 +21.1 49 +41 +41 опасность
перегрева
997.2 966.8 0.0
07 16.09 СЗ 8 20 км в посл. час дождь н/о +31.8 +20.4 51 +39 +39 очень
душно
997.7 967.2
08 16.09 СЗ 7 20 км н/о +30.1 +20.4 56 +37 +37 очень
душно
998.4 967.7
09 16.09 СЗ 7 20 км {дождь} н/о +28.8 +20.3 60 +35 +35 очень
душно
999.4 968.5
10 16.09 СЗ 6 20 км н/о +28.0 +19.5 60 +34 +34 очень
душно
1000.5 969.5
11 16.09 СЗ 5 20 км н/о +27.5 +19.1 60 +33 +33 очень
душно
1001.6 970.5
12 16.09 СЗ 5 20 км {дождь} н/о +26.8 +19.4 64 +32 +32 очень
душно
1002.5 971.3 +34.9 0.0
13 16.09 СЗ 4 20 км н/о +26.9 +19.0 62 +32 +32 очень
душно
1003.1 971.9
14 16.09 СЗ 4 20 км н/о +26.1 +19.0 65 +31 +31 очень
душно
1003.4 972.1
15 16.09 СЗ 4 20 км н/о +25.9 +18.8 65 +31 +31 очень
душно
1004.1 972.7
16 16.09 С 1 20 км н/о +25.6 +20.2 72 +32 +32 очень
душно
1004.7 973.3
17 16.09 ЮВ 1 20 км н/о +24.9 +19.5 72 +30 +30 душно 1005.0 973.5
18 16.09 СЗ 2 20 км н/о +24.3 +20.0 77 +30 +30 очень
душно
1006.0 974.4
19 16.09 СЗ 3 20 км н/о +24.2 +19.9 77 +30 +30 очень
душно
1006.5 974.9
20 16.09 ЮВ 1 20 км н/о +24.4 +19.5 74 +30 +30 очень
душно
1007.0 975.4
21 16.09 Ю 1 20 км н/о +24.5 +19.8 75 +30 +30 очень
душно
1007.5 975.9
22 16.09 В 1 20 км н/о +25.3 +19.0 68 +30 +30 душно 1007.4 975.9
23 16.09 ЮЗ 2 20 км н/о +26.7 +19.6 65 +32 +32 очень
душно
1008.0 976.6
00 17.09 Ю 2 20 км н/о +27.4 +19.0 60 +33 +33 очень
душно
1008.6 977.3 +23.9
01 17.09 В 2 20 км н/о +29.3 +19.6 56 +35 +35 очень
душно
1008.1 977.0
02 17.09 ЮВ 3 20 км н/о +29.8 +19.8 55 +36 +36 очень
душно
1007.3 976.3
03 17.09 Ю 2 20 км н/о +30.7 +19.7 52 +37 +37 очень
душно
1006.6 975.7
04 17.09 В 4 20 км н/о +30.8 +20.7 55 +38 +38 очень
душно
1006.3 975.4
05 17.09 В 5 20 км н/о +31.5 +19.2 48 +37 +37 очень
душно
1006.4 975.6
06 17.09 В 4 20 км н/о +29.9 +19.3 53 +36 +36 очень
душно
1006.8 975.8
07 17.09 В 5 20 км н/о +29.9 +19.3 53 +36 +36 очень
душно
1007.1 976.1
08 17.09 ЮВ 4 20 км н/о +29.2 +19.2 55 +35 +35 очень
душно
1008.0 976.9
09 17.09 В 4 20 км н/о +28.5 +19.2 57 +34 +34 очень
душно
1008.6 977.4
10 17.09 СВ 2 20 км н/о +28.1 +19.3 59 +34 +34 очень
душно
1009.3 978.0
11 17.09 В 4 20 км н/о +27.1 +18.9 61 +32 +32 очень
душно
1009.9 978.5
12 17.09 В 4 20 км н/о +26.2 +18.6 63 +31 +31 очень
душно
1010.2 978.7 +33.1
13 17.09 В 4 20 км н/о +25.8 +18.5 64 +31 +31 очень
душно
1010.8 979.2
14 17.09 В 4 20 км н/о +25.6 +18.3 64 +30 +30 душно 1010.8 979.2
15 17.09 В 4 20 км н/о +24.9 +18.4 67 +29 +29 душно 1010.8 979.1
16 17.09 В 4 20 км н/о +24.6 +18.1 67 +29 +29 душно 1010.6 978.9
17 17.09 В 3 20 км н/о +24.5 +17.5 65 +29 +29 душно 1010.4 978.7
18 17.09 В 4 20 км н/о +24.1 +17.4 66 +28 +28 душно 1010.4 978.6
20 17.09 В 2 20 км н/о +23.8 +17.1 66 +28 +28 душно 1010.4 978.6
21 17.09 В 4 20 км н/о +23.8 +17.1 66 +28 +28 душно 1010.6 978.8
23 17.09 В 3 20 км н/о +24.9 +15.8 57 +28 +28 жарко 1010.4 978.7
01 18.09 Ю 4 20 км н/о +26.8 +15.8 51 +30 +30 душно 1009.7 978.3
02 18.09 ЮЗ 4 20 км н/о +26.3 +16.8 56 +30 +30 душно 1009.6 978.1
03 18.09 З 3 13 км слаб. дождь н/о +24.6 +19.5 73 +30 +30 очень
душно
1008.9 977.2
04 18.09 СЗ 1 20 км слаб. дождь н/о +25.0 +19.6 72 +30 +30 душно 1008.5 976.9
05 18.09 С 3 13 км слаб. дождь н/о +24.0 +19.3 75 +29 +29 душно 1007.9 976.2
06 18.09 ЮЗ 2 17 км слаб. дождь н/о +23.6 +20.0 80 +29 +29 душно 1008.6 976.8 0.5
07 18.09 СВ 1 19 км слаб. дождь н/о +22.5 +20.4 88 +29 +29 очень
душно
1008.9 977.0
09 18.09 З 2 20 км в посл. час дождь н/о +21.4 +19.9 91 +26 +26 душно 1009.7 977.6
10 18.09 ЮЗ 1 20 км слаб. дождь н/о +21.5 +19.8 90 +27 +27 душно 1010.2 978.1
11 18.09 Ю 1 20 км слаб. дождь н/о +21.6 +19.7 89 +27 +27 душно 1010.6 978.5
12 18.09 СВ 2 20 км в посл. час дождь н/о +21.8 +20.5 92 +28 +28 душно 1010.3 978.3 +28.3 2
13 18.09 З 2 20 км н/о +21.7 +18.3 81 +26 +26 душно 1010.9 978.8
14 18.09 СЗ 2 20 км н/о +21.4 +19.7 90 +26 +26 душно 1010.8 978.7
15 18.09 З 2 20 км н/о +21.3 +17.7 80 +25 +25 комфорт 1010.5 978.4
16 18.09 З 2 20 км в посл. час дождь н/о +21.1 +17.3 79 +25 +25 комфорт 1010.7 978.6
17 18.09 З 2 20 км н/о +21.2 +15.7 71 +24 +24 комфорт 1010.5 978.4
18 18.09 Ю 2 20 км {дождь} н/о +20.8 +16.4 76 +25 +25 комфорт 1011.2 979.0 0.0
19 18.09 В 2 20 км н/о +20.5 +16.1 76 +24 +24 комфорт 1011.7 979.5
20 18.09 СВ 2 20 км н/о +19.5 +16.7 84 +22 +22 комфорт 1012.0 979.6
21 18.09 С 4 20 км в посл. час дождь н/о +20.8 +13.3 62 +23 +23 комфорт 1013.2 980.9
22 18.09 В 1 20 км н/о +20.1 +17.1 83 +25 +25 комфорт 1014.1 981.7
23 18.09 СЗ 2 20 км н/о +22.3 +14.7 62 +26 +26 жарко 1013.7 981.6
00 19.09 Ю 3 20 км {дождь} н/о +22.9 +13.9 57 +26 +26 жарко 1013.6 981.6 +19.4 0.0
01 19.09 З 1 20 км н/о +23.4 +13.9 55 +27 +27 душно 1013.2 981.3
02 19.09 ЮЗ 1 20 км н/о +25.2 +14.7 52 +28 +28 жарко 1012.3 980.6
03 19.09 В 1 20 км н/о +26.1 +13.9 47 +28 +28 жарко 1011.4 979.8
04 19.09 ЮЗ 2 20 км н/о +27.4 +13.0 41 +29 +29 жарко 1010.6 979.2
05 19.09 ЮЗ 2 20 км н/о +29.0 +13.3 38 +31 +31 жарко 1010.1 978.9
06 19.09 Ю 4 20 км н/о +29.0 +14.1 40 +31 +31 жарко 1009.9 978.7
07 19.09 ЮЗ 8 20 км н/о +27.3 +16.0 50 +31 +31 душно 1010.3 978.9
08 19.09 ЮЗ 6 20 км н/о +25.4 +16.6 58 +29 +29 душно 1011.1 979.5
09 19.09 ЮЗ 5 20 км н/о +24.1 +15.3 58 +27 +27 жарко 1012.2 980.4
10 19.09 ЮЗ 2 20 км н/о +23.3 +14.9 59 +27 +27 душно 1013.3 981.3
11 19.09 З 2 20 км н/о +23.3 +14.3 57 +27 +27 душно 1014.0 982.0
12 19.09 З 3 20 км н/о +22.6 +13.9 58 +26 +26 жарко 1014.6 982.5 +29.8
13 19.09 З 3 20 км н/о +21.5 +13.4 60 +24 +24 комфорт 1014.7 982.5
14 19.09 З 1 20 км н/о +21.1 +13.8 63 +24 +24 комфорт 1015.0 982.7
15 19.09 З 3 20 км н/о +20.3 +12.8 62 +23 +23 комфорт 1015.1 982.7
16 19.09 З 2 20 км н/о +20.2 +13.7 66 +23 +23 комфорт 1014.9 982.5
18 19.09 З 2 20 км н/о +19.8 +13.7 68 +22 +22 комфорт 1015.0 982.6
19 19.09 ЮВ 1 20 км н/о +20.0 +13.7 67 +23 +23 комфорт 1015.5 983.1
20 19.09 ЮВ 1 20 км н/о +19.4 +13.4 68 +22 +22 комфорт 1015.8 983.3
21 19.09 ЮВ 2 20 км н/о +19.0 +13.2 69 +21 +21 комфорт 1016.7 984.1
22 19.09 Ю 1 20 км н/о +19.2 +13.4 69 +22 +22 комфорт 1017.3 984.7
23 19.09 В 2 20 км н/о +20.3 +13.3 64 +23 +23 комфорт 1017.4 984.9
00 20.09 СЗ 1 20 км н/о +21.2 +13.4 61 +24 +24 комфорт 1016.8 984.5 +18.9
01 20.09 З 1 20 км н/о +22.9 +13.4 55 +26 +26 жарко 1016.2 984.1
02 20.09 ЮВ 1 20 км н/о +24.7 +14.5 53 +27 +27 жарко 1015.4 983.5
03 20.09 ЮЗ 2 20 км н/о +26.1 +13.9 47 +28 +28 жарко 1014.6 982.9
04 20.09 ЮВ 2 20 км н/о +27.6 +11.6 37 +29 +29 жарко 1013.8 982.3
05 20.09 З 1 20 км н/о +27.6 +10.8 35 +28 +28 жарко 1013.7 982.2
06 20.09 ЮЗ 3 20 км н/о +28.0 +11.6 36 +29 +29 жарко 1013.7 982.3
07 20.09 ЮВ 2 20 км н/о +27.0 +13.7 44 +29 +29 жарко 1014.4 982.8
08 20.09 ЮЗ 5 20 км н/о +24.9 +16.1 58 +28 +28 жарко 1015.6 983.8
09 20.09 ЮЗ 5 20 км н/о +24.0 +15.8 60 +27 +27 жарко 1016.6 984.6
10 20.09 З 3 20 км н/о +23.5 +15.6 61 +27 +27 душно 1017.5 985.4
11 20.09 З 2 20 км слаб. дождь н/о +23.2 +15.8 63 +28 +28 душно 1017.4 985.3
12 20.09 СЗ 2 20 км слаб. дождь н/о +21.3 +17.5 79 +25 +25 комфорт 1019.1 986.7 +29.1 0.5
13 20.09 СВ 2 20 км в посл. час дождь н/о +20.8 +17.0 79 +25 +25 комфорт 1019.2 986.8
14 20.09 СВ 1 20 км слаб. дождь н/о +20.8 +17.4 81 +26 +26 душно 1019.5 987.0
16 20.09 СВ 1 15 км слаб. дождь н/о +20.3 +17.7 85 +25 +25 комфорт 1020.1 987.6
17 20.09 ЮЗ 2 13 км слаб. дождь н/о +19.7 +18.0 90 +23 +23 комфорт 1020.1 987.5
18 20.09 СВ 1 13 км слаб. дождь н/о +19.3 +18.0 92 +22 +22 комфорт 1019.3 986.7 1
19 20.09 З 2 12 км слаб. дождь н/о +19.0 +18.2 95 +21 +21 комфорт 1020.1 987.4
20 20.09 ЮВ 2 15 км слаб. дождь н/о +19.1 +18.0 93 +22 +22 комфорт 1019.5 986.8
22 20.09 З 1 14 км в посл. час дождь н/о +19.2 +18.2 94 +22 +22 комфорт 1020.8 988.1
23 20.09 З 1 20 км слаб. дождь н/о +19.7 +17.5 87 +23 +23 комфорт 1021.4 988.7
00 21.09 В 3 20 км в посл. час дождь н/о +20.9 +13.6 63 +24 +24 комфорт 1021.5 989.0 +18.9 2
01 21.09 В 3 20 км н/о +21.3 +14.7 66 +24 +24 комфорт 1021.6 989.1
02 21.09 В 2 20 км н/о +22.5 +13.6 57 +26 +26 жарко 1021.0 988.7
03 21.09 ЮВ 2 20 км н/о +22.4 +15.3 64 +26 +26 жарко 1020.7 988.4
04 21.09 З 2 20 км н/о +22.2 +15.3 65 +26 +26 душно 1020.3 988.0
05 21.09 СЗ 3 20 км н/о +22.2 +15.6 66 +26 +26 душно 1020.0 987.7
06 21.09 СЗ 3 20 км н/о +22.0 +15.1 65 +26 +26 душно 1019.9 987.6
07 21.09 СЗ 4 20 км н/о +21.8 +15.9 69 +25 +25 комфорт 1020.1 987.7
08 21.09 З 2 20 км н/о +21.4 +15.9 71 +25 +25 комфорт 1020.3 987.9
09 21.09 З 2 20 км н/о +21.0 +16.0 73 +25 +25 комфорт 1020.7 988.2
10 21.09 С 1 20 км н/о +21.0 +15.3 70 +25 +25 комфорт 1021.2 988.7
11 21.09 СЗ 1 20 км н/о +20.3 +16.8 80 +25 +25 комфорт 1022.0 989.4
12 21.09 З 2 20 км н/о +19.8 +16.5 81 +23 +23 комфорт 1022.3 989.6 +22.8
13 21.09 СВ 1 20 км н/о +18.9 +16.3 85 +22 +22 комфорт 1022.1 989.3
14 21.09 СВ 1 20 км н/о +18.6 +15.5 82 +21 +21 комфорт 1021.6 988.8
15 21.09 СВ 1 20 км н/о +18.5 +15.4 82 +20 +20 1021.8 989.0
16 21.09 Ю 1 20 км н/о +18.4 +16.0 86 +20 +20 1021.5 988.7
17 21.09 ЮЗ 1 20 км н/о +17.7 +15.3 86 +19 +19 1021.0 988.1
18 21.09 СВ 1 20 км н/о +17.5 +15.5 88 +19 +19 1021.0 988.1
19 21.09 С 1 20 км н/о +17.8 +15.6 87 +19 +19 1021.2 988.3
20 21.09 В 2 20 км н/о +17.9 +15.7 87 +19 +19 1021.1 988.2
21 21.09 ЮЗ 1 20 км н/о +17.8 +15.8 88 +19 +19 1021.5 988.6
22 21.09 З 1 20 км н/о +18.3 +15.8 85 +20 +20 1021.2 988.4
23 21.09 Ю 1 20 км н/о +18.7 +15.2 80 +21 +21 комфорт 1021.1 988.3
00 22.09 В 1 20 км н/о +19.9 +15.6 76 +24 +24 комфорт 1020.5 987.9 +17.1
01 22.09 З 1 20 км н/о +20.8 +15.4 71 +25 +25 комфорт 1020.0 987.5
02 22.09 ЮВ 1 20 км н/о +21.8 +14.7 64 +25 +25 комфорт 1019.2 986.9
03 22.09 ЮВ 2 20 км н/о +24.2 +15.7 59 +27 +27 жарко 1017.8 985.8
04 22.09 Ю 1 20 км н/о +24.7 +15.6 57 +28 +28 душно 1016.5 984.6
05 22.09 СЗ 1 20 км н/о +25.5 +16.1 56 +29 +29 душно 1015.7 983.9
06 22.09 ЮЗ 2 20 км н/о +26.2 +15.6 52 +29 +29 жарко 1015.0 983.3
07 22.09 ЮЗ 1 20 км н/о +25.7 +16.3 56 +29 +29 душно 1014.8 983.1
08 22.09 ЮЗ 4 10 км слаб. дождь н/о +23.9 +18.8 73 +29 +29 душно 1015.6 983.6
09 22.09 СЗ 1 20 км слаб. дождь н/о +21.4 +19.0 86 +26 +26 душно 1016.1 983.8
10 22.09 ЮЗ 2 2600 м сильн. дождь н/о +20.6 +20.1 97 +26 +26 душно 1016.7 984.3
11 22.09 ЮЗ 2 4600 м слаб. дождь н/о +20.2 +19.9 98 +25 +25 комфорт 1017.0 984.5
12 22.09 ЮВ 1 4400 м слаб. дождь н/о +19.8 +19.5 98 +24 +24 комфорт 1016.6 984.1 +26.5 12
13 22.09 ЮВ 1 3000 м слаб. дождь н/о +19.8 +19.7 99 +24 +24 комфорт 1016.0 983.5
14 22.09 С 1 4100 м слаб. дождь н/о +19.7 +19.7 100 +24 +24 комфорт 1015.2 982.7
15 22.09 штиль 0 3900 м дождь н/о +19.8 +19.8 100 +23 +23 комфорт 1014.3 981.9
16 22.09 ЮЗ 2 5000 м слаб. дождь н/о +19.8 +19.8 100 +24 +24 комфорт 1013.9 981.5
17 22.09 В 1 20 км слаб. дождь н/о +19.9 +19.8 99 +24 +24 комфорт 1013.3 980.9
18 22.09 ЮВ 1 14 км слаб. дождь н/о +19.9 +19.6 98 +24 +24 комфорт 1011.7 979.4 17
19 22.09 СЗ 1 6000 м слаб. дождь н/о +19.9 +19.8 99 +24 +24 комфорт 1010.5 978.2
20 22.09 В 1 5000 м слаб. дождь н/о +19.9 +19.8 99 +24 +24 комфорт 1010.5 978.2
21 22.09 СЗ 2 19 км слаб. дождь н/о +20.1 +20.0 99 +25 +25 комфорт 1009.5 977.3
22 22.09 С 2 20 км слаб. дождь н/о +20.6 +20.3 98 +26 +26 душно 1009.4 977.2
23 22.09 ЮЗ 2 20 км в посл. час дождь н/о +22.2 +21.0 93 +29 +29 очень
душно
1008.5 976.6

 

Местоположение метеостанции Кофу (Япония): широта 35.67 долгота 138.55 высота над уровнем моря 281 м.

В архиве по умолчанию представлена погода в Кофу за последнюю неделю. Архивные данные за месяц целиком и за предыдущие месяцы, начиная с января 2011 года, Вы можете получить, выбрав интересующий диапазон дат из раскрывающегося списка и нажав кнопку "Ввод!".


*Определитесь, кто Вы:
робот инопланетянин человек

Внимание! Время в таблицах - всемирное. Для получения местного времени необходимо прибавить поправку, которая равна 9 ч.

Смотрите также архив погоды в соседних городах и на ближайших метеорологических станциях:

Погода на Озере Кавагучи (Япония) (27 км)
Погода на Фудзияме (Япония) (37 км)
Погода в Чичибу (Япония) (57 км)
Погода в Суве (Япония) (58 км)
Погода в Ииде (Япония) (69 км)
Погода в Мисиме (Япония) (70 км)
Погода в Каруидзаве (Япония) (76 км)
Погода в Сидзуоке (Япония) (78 км)
Погода в Мацумото (Япония) (84 км)
Погода в Аджиро (Япония) (85 км)

Пояснения к столбцам:

Ветер - указаны скорость ветра в м/с - средняя за 10 мин, порывы в срок и между сроками (в фигурных скобках) и направление, откуда дует ветер: С - северный, СВ - северо-восточный, В - восточный, ЮВ - юго-восточный, Ю - южный, ЮЗ - юго-западный, З - западный, СЗ - северо-западный.
Видимость - горизонтальная дальность видимости в метрах или километрах. При видимости от 1 до 10 км при отсутствии осадков обычно наблюдается дымка, при ухудшении видимости до 1 км и менее - туман. В сухую погоду видимость может ухудшаться дымом, пылью или мглою.
Явления - указаны атмосферные явления, наблюдавшиеся в срок или в последний час перед сроком; фигурными скобками обозначены явления, наблюдавшиеся между сроками (за 1-3 часа до срока); квадратными скобками обозначены град или гололедные отложения с указанием их диаметра в мм.
Облачность - указаны через наклонную черту общая и нижняя облачность в баллах и высота нижней границы облаков в метрах; квадратными скобками обозначены формы облаков: Ci - перистые, Cs - перисто-слоистые, Cc - перисто-кучевые, Ac - высококучевые, As - высокослоистые, Sc - слоисто-кучевые, Ns - слоисто-дождевые, Cu - кучевые, Cb - кучево-дождевые. Подробнее классификацию облаков см. в Атласе облаков (PDF).
T - Температура воздуха - температура, измеренная на высоте 2 м над землей.
Td - Температура точки росы - температура, при понижении до которой содержащийся в воздухе водяной пар достигнет насыщения.
f - Относительная влажность воздуха - влажноcть воздуха, измеренная на высоте 2 м над землей.
Te - Эффективная температура - температура, которую ощущает одетый по сезону человек в тени. Характеристика душности погоды. При расчете учитывается влияние влажности воздуха и скорости ветра на теплоощущения человека.
Tes - Эффективная температура на солнце - температура, которую ощущает человек, с поправкой на солнечный нагрев. Характеристика знойности погоды. Зависит от высоты солнца над горизонтом, облачности и скорости ветра. Ночью, в пасмурную погоду, а также при ветре 12 м/с и более поправка равна нулю.
P - Атмосферное давление - приведенное к уровню моря атмосферное давление.
Po - Атмосферное давление - измеренное на уровне метеостанции атмосферное давление.
Tmin - Минимальная температура - минимум температуры воздуха на высоте 2 м над землей.
Tmax - Максимальная температура - максимум температуры воздуха на высоте 2 м над землей.
R - Количество осадков - Количество выпавших осадков за период времени, мм. При наведении курсора мыши на число - период времени, за который выпало указанное количество осадков.
R24 - Количество осадков - Количество выпавших осадков за 24 часа, мм.
S - Снежный покров - Высота снежного покрова, см. При наведении курсора мыши на число - состояние снежного покрова и степень покрытия местности в баллах.